Regional Weather Roundup
Issued by NWS Wilmington, NC

Home | Current Version | Previous Version | Text Only | Print | Product List | Glossary On
Versions: 1 2 3 4 5 6 7 8 9 10 11 12 13 14 15 16 17 18 19 20 21 22 23 24 25 26 27 28 29 30 31 32 33 34 35 36 37 38 39 40 41 42 43 44 45 46 47 48 49 50
000
ASUS42 KILM 300813
RWRILM
RWRILM
REGIONAL HOURLY WEATHER ROUNDUP
NATIONAL WEATHER SERVICE WILMINGTON NC
400 AM EDT SUN AUG 30 2015

NOTE: "FAIR" INDICATES FEW OR NO CLOUDS BELOW 12,000 FEET WITH NO
SIGNIFICANT WEATHER AND/OR OBSTRUCTIONS TO VISIBILITY.

...............WFO WILMINGTON COUNTY WARNING AREA...............

......COASTAL NC AND SC COUNTIES......

CITY           SKY/WX    TMP DP  RH WIND       PRES   REMARKS
WILMINGTON     CLOUDY    71  65  81 CALM      30.10F
N MYRTLE BEACH CLOUDY    72  67  84 N3        30.09F
MYRTLE BEACH   CLOUDY    75  66  73 N5        30.11F

......INLAND NC AND SC COUNTIES.......

CITY           SKY/WX    TMP DP  RH WIND       PRES   REMARKS
LUMBERTON      CLEAR     67  64  90 CALM      30.11S
ELIZABETHTOWN  PTCLDY    68  64  87 CALM      30.11S
WHITEVILLE     MOCLDY    69  66  90 CALM      30.11S
FLORENCE       PTCLDY    70  65  84 CALM      30.10F
DARLINGTON     PTCLDY    66  61  82 N3        30.12F

....................REST OF NORTH CAROLINA......................

.........EASTERN NC.........

CITY           SKY/WX    TMP DP  RH WIND       PRES   REMARKS
CAPE HATTERAS  MOCLDY    76  73  91 VRB3      30.08S
JACKSONVILLE   MOCLDY    64  61  88 CALM      30.11S
MOREHEAD CITY  PTCLDY    71  69  93 N6        30.10S
KENANSVILLE      N/A     65  64  96 CALM      30.12S
NEW BERN       PTCLDY    67  64  90 S3        30.12S
ELIZABETH CITY MOCLDY    70  66  87 NW7       30.10F

.........CENTRAL NC.........

CITY           SKY/WX    TMP DP  RH WIND       PRES   REMARKS
RALEIGH DURHAM CLOUDY    68  61  78 CALM      30.14S
ROCKY MOUNT    PTCLDY    65  62  90 CALM      30.12S
ROANOKE RAPIDS NOT AVBL
FAYETTEVILLE   PTCLDY    68  64  87 CALM      30.11F
HOFFMAN        PTCLDY    65  63  95 N2        30.12S

.........WESTERN NC.........

CITY           SKY/WX    TMP DP  RH WIND       PRES   REMARKS
CHARLOTTE      CLOUDY    70  62  76 CALM      30.14F
GREENSBORO     CLOUDY    69  63  81 SW3       30.14S
HICKORY        NOT AVBL
BOONE          NOT AVBL
ASHEVILLE      NOT AVBL

.....................REST OF SOUTH CAROLINA.....................

.........EASTERN SC.........

CITY           SKY/WX    TMP DP  RH WIND       PRES   REMARKS
CHARLESTON     CLOUDY    74  72  93 NE5       30.08F
BEAUFORT MCAS  CLOUDY    76  73  91 NE5       30.07S THUNDER
HILTON HEAD    CLOUDY    73  73 100 CALM      30.08R

.........CENTRAL SC.........

CITY           SKY/WX    TMP DP  RH WIND       PRES   REMARKS
COLUMBIA       CLOUDY    74  59  59 E5        30.10F
ORANGEBURG     CLOUDY    71  61  70 NE3       30.10S
SUMTER SHAW    MOCLDY    68  61  78 NE2       30.09S

.........WESTERN SC.........

CITY           SKY/WX    TMP DP  RH WIND       PRES   REMARKS
GREENVILLE     NOT AVBL
ROCK HILL      CLOUDY    68  64  87 CALM      30.14S
ANDERSON       CLOUDY    70  64  81 CALM      30.13S
CLEMSON        NOT AVBL
GREENWOOD      CLOUDY    69  64  84 CALM      30.13S


...................COASTAL AND OFFSHORE REPORTS..................

................LOCAL PIERS AND NC RESERVE................


STATION/POSITION TIME  SKY/WX   TEMP    WIND        PRES    VSBY
                                AIR SEA DIR/SP/G
                 (UTC)          (F)     (DEG/KT/KT) (MB)    (MI)
JOHNY MRCER PIER NOT AVBL
NC RESRV MASNBRO NOT AVBL
OCEAN CREST PIER NOT AVBL
SPRINGMAID  PIER NOT AVBL


................COASTAL AND OFFSHORE BUOYS................


STATION/POSITION TIME  SKY/WX   TEMP    WIND        PRES    VSBY
                                AIR SEA DIR/SP/G
                 (UTC)          (F)     (DEG/KT/KT) (MB)    (MI)
DIMNDSHOAL 41025 0750            78 81  350/ 10/ 12 1018.6R
WVE H/P(F/S)=  3/10 SWL H/P/D(F/S/D)=  3/120/10

CAPE LOOKOUT     0800            74     350/  6/  7 1018.8R
ONSLOW BAY 41036 NOT AVBL
ONSLOW BAY 41064 0708            79 81   30/  6/ 10 1019.5F
ONSLOW BAY 41159 0725               81                N/A
WVE H/P(F/S)=  4/11 WND WVE H/P(F/S)=  3/10 SWL H/P/D(F/S/D)=  2/130/11

5SE WRITBC 41038 0708            80 82   60/  6/  8 1019.3F
MASNBO INL 41110 0719               82                N/A
WVE H/P(F/S)=  3/11 WND WVE H/P(F/S)=  3/ 9 SWL H/P/D(F/S/D)=  2/120/11

WILM HARBR 41108 0711               83                N/A
WVE H/P(F/S)=  3/11 WND WVE H/P(F/S)=  3/10 SWL H/P/D(F/S/D)=  2/140/11

27SE WRITB 41037 0700            76 82   50/  6/  8   N/A
FRYING PAN 41013 0750            80 81   80/  6/  8 1019.5F
WVE H/P(F/S)=  4/10 WND WVE H/P(F/S)=  2/ 4 SWL H/P/D(F/S/D)=  3/130/10

SUNST NRSH 41024 0708            79      60/  8/ 10 1019.4F
CAPRS NRSH 41029 0708            81     100/  8/ 12 1018.9F
EDISTO     41004 0750            75 85  190/  6/ 12 1019.1R
WVE H/P(F/S)=  4/11 WND WVE H/P(F/S)=  2/ 4 SWL H/P/D(F/S/D)=  3/11



..........OFFSHORE BUOYS BEYOND 100 NM OFFSHORE...........
.....IN A TRIANGLE---HAT TO BERMUDA TO BAHAMAS TO HAT.....


STATION/POSITION TIME  SKY/WX   TEMP    WIND        PRES    VSBY
                                AIR SEA DIR/SP/G
                 (UTC)          (F)     (DEG/KT/KT) (MB)    (MI)
150E HAT   41001 0700            80 82  220/ 17/ 21 1018.0F
W BERMUDA  41048 0750            83 84  210/ 10/ 12 1020.3F
WVE H/P(F/S)=  5/10 WND WVE H/P(F/S)=  2/ 4 SWL H/P/D(F/S/D)=  5/110/10

ATLANTIC S 41049 0750            83 86   50/ 12/ 14 1018.8F
WVE H/P(F/S)=  4/ 9 WND WVE H/P(F/S)=  2/ 4 SWL H/P/D(F/S/D)=  3/ 50/ 9

E BAHAMAS  41046 0750            84 85   90/ 16/ 17 1017.1F
WVE H/P(F/S)=  5/ 8 WND WVE H/P(F/S)=  3/ 7 SWL H/P/D(F/S/D)=  3/120/ 8

NE BAHAMAS 41047 0750            83 85  100/  8/ 14 1018.6F
WVE H/P(F/S)=  6/10 WND WVE H/P(F/S)=  2/ 4 SWL H/P/D(F/S/D)=  5/120/10

120E CANVRL41010 0720            84 85  110/ 16/ 17 1016.6F

END



USA.gov is the U.S. government's official web portal to all federal, state and local government web resources and services.